Weather observations for the past three days for
VIGIE/ST LUCIA
Metric (Imperial)
Date Time (ast) Wind (kph) Vis. (km) Weather Sky Cond. Temperature (ºC) Relative Humidity Wind Chill (°C) Heat Index (°C) Pressure Precipitation (cm)
Air Dwpt 6 hour altimeter (cm) sea level (mb) 1 hr 3 hr 6 hr
Max. Min.
05 11:00 E 19 0.00 A Few Clouds FEW022 31 24 66% 37 0 0.0
05 10:00 E 15 0.00 Partly Cloudy SCT022 31 25 70% 38 0 0.0
05 09:00 E 15 0.00 Partly Cloudy SCT022 31 25 70% 38 0 0.0
05 08:00 SE 9 0.00 Partly Cloudy SCT022 30 26 79% 37 0 0.0
04 21:00 E 9 0.00 A Few Clouds FEW024 29 26 84% 36 0 0.0
04 20:00 E 11 0.00 A Few Clouds FEW024 29 26 84% 36 0 0.0
04 19:00 SE 9 0.00 Partly Cloudy SCT024 29 25 79% 35 0 0.0
04 17:00 SE 17 0.00 A Few Clouds FEW026 31 25 70% 38 0 0.0
04 16:00 SE 17 0.00 A Few Clouds FEW026 31 24 66% 37 0 0.0
04 15:00 E 13 0.00 A Few Clouds FEW027 32 23 59% 37 0 0.0
04 14:00 E 13 0.00 A Few Clouds FEW027 33 25 63% 41 0 0.0
04 13:00 SE 17 0.00 A Few Clouds FEW025 32 23 59% 37 0 0.0
04 12:00 SE 19 0.00 A Few Clouds FEW025 32 24 63% 38 0 0.0
04 11:00 E 17 0.00 A Few Clouds FEW025 31 25 70% 38 0 0.0
04 10:00 E 17 0.00 A Few Clouds FEW025 31 24 66% 37 0 0.0
04 09:00 E 13 0.00 A Few Clouds FEW025 30 25 75% 36 0 0.0
04 08:00 E 17 0.00 A Few Clouds FEW025 29 24 74% 34 0 0.0
03 20:00 E 9 0.00 Partly Cloudy SCT024 29 26 84% 36 0 0.0
03 19:00 E 9 0.00 Mostly Cloudy BKN024 29 24 74% 34 0 0.0
03 18:00 E 9 0.00 A Few Clouds FEW025 29 25 79% 35 0 0.0
03 17:00 E 11 0.00 Partly Cloudy SCT026 30 24 70% 35 0 0.0
03 16:00 E 13 0.00 Partly Cloudy SCT026 31 24 66% 37 0 0.0
03 15:00 E 17 0.00 A Few Clouds FEW028 32 24 63% 38 0 0.0
03 14:00 E 17 0.00 A Few Clouds FEW028 32 24 63% 38 0 0.0
03 13:00 SE 15 0.00 A Few Clouds FEW028 31 24 66% 37 0 0.0
03 12:00 E 15 0.00 A Few Clouds FEW028 31 23 62% 35 0 0.0
03 11:00 SE 17 0.00 A Few Clouds FEW028 31 24 66% 37 0 0.0
03 10:00 E 13 0.00 A Few Clouds FEW026 31 24 66% 37 0 0.0
03 09:00 E 11 0.00 Partly Cloudy SCT026 30 24 70% 35 0 0.0
03 08:00 E 11 0.00 Partly Cloudy SCT026 29 24 74% 34 0 0.0
02 19:00 E 13 0.00 A Few Clouds FEW024 28 23 74% 31 0 0.0
02 18:00 E 17 0.00 A Few Clouds FEW024 29 23 70% 33 0 0.0
02 17:00 E 15 0.00 Partly Cloudy SCT026 30 23 66% 34 0 0.0
02 16:00 E 15 0.00 A Few Clouds FEW026 31 24 66% 37 0 0.0
02 15:00 E 13 0.00 A Few Clouds FEW026 32 22 55% 36 0 0.0
02 14:00 NE 11 0.00 A Few Clouds FEW026 32 22 55% 36 0 0.0
02 13:00 E 17 0.00 A Few Clouds FEW025 32 22 55% 36 0 0.0
02 12:00 E 15 0.00 Partly Cloudy SCT025 32 23 59% 37 0 0.0
Date Time (ast) Wind (kph) Vis. (km) Weather Sky Cond. Air Dwpt Max. Min. Relative Humidity Wind Chill (°C) Heat Index (°C) altimeter (cm) sea level (mb) 1 hr 3 hr 6 hr
6 hour
Temperature (ºC) Pressure Precipitation (cm)